Find Starlink 31668

NORAD ID: 59580 Int'l Des: 2024-076 Owner: SPXS Country: US Constellation: starlink operational
LEOCIRCULAR

当前视图

正在加载3D地球...

关于 Starlink 31668

正在加载描述...

即将过境

Passes for default location (London). Set your location on the main map for personalized predictions.

高度历史

Loading altitude history...

两行轨道根数

1 59580U 24076S 26156.47497940 .00000910 00000-0 42585-4 0 9998
2 59580 43.0012 232.7762 0001319 255.0403 105.0302 15.27579936119939
Epoch: Jun 5, 2026 • Age: 63 hours

当前状态

高度 487.1 km
速度 7.63 km/s
星下点 43.16°N, 12.51°E
发射日期 Apr 23, 2024
运行时间 2.1 years
类型 internet

技术详情

分类 Payload
质量 730.00 kg
干质量 700.00 kg
总质量 730.00 kg
长度 0.30 m
直径 4.10 m
跨度 29.00 m
形状 Box + pan
制造商 SPXS
平台类型 Starlink V2M
阶段状态 In Orbit
所有者/国家 SPXS/US

Most Searched